Time,TemperatureF,DewpointF,PressureIn,WindDirection,WindDirectionDegrees,WindSpeedMPH,WindSpeedGustMPH,Humidity,HourlyPrecipIn,Conditions,Clouds,dailyrainin,SoftwareType,DateUTC
2013-08-08 00:02:00,70.0,64.0,-100.00,ESE,113,6.0,-999.0,83,-99.99,,,-99.99,,2013-08-08 05:02:00,
2013-08-08 00:11:00,70.0,64.0,-100.00,ESE,113,6.0,-999.0,83,-99.99,,,-99.99,,2013-08-08 05:11:00,
2013-08-08 00:22:00,71.0,64.0,-100.00,East,90,8.0,-999.0,81,-99.99,,,-99.99,,2013-08-08 05:22:00,
2013-08-08 00:33:00,71.0,64.0,-100.00,East,90,6.0,-999.0,79,-99.99,,,-99.99,,2013-08-08 05:33:00,
2013-08-08 00:43:00,71.0,64.0,-100.00,East,90,6.0,-999.0,79,-99.99,,,-99.99,,2013-08-08 05:43:00,
2013-08-08 00:52:00,71.0,64.0,-100.00,East,90,6.0,-999.0,80,-99.99,,,-99.99,,2013-08-08 05:52:00,
2013-08-08 01:01:00,71.0,64.0,-100.00,ESE,113,6.0,-999.0,80,-99.99,,,-99.99,,2013-08-08 06:01:00,
2013-08-08 01:11:00,71.0,64.0,-100.00,ESE,113,6.0,-999.0,80,-99.99,,,-99.99,,2013-08-08 06:11:00,
2013-08-08 01:21:00,69.0,64.0,-100.00,ESE,113,5.0,-999.0,84,-99.99,,,-99.99,,2013-08-08 06:21:00,
2013-08-08 01:32:00,69.0,65.0,-100.00,ESE,113,4.0,-999.0,86,-99.99,,,-99.99,,2013-08-08 06:32:00,
2013-08-08 01:43:00,69.0,65.0,-100.00,ESE,113,4.0,-999.0,86,-99.99,,,-99.99,,2013-08-08 06:43:00,
2013-08-08 01:52:00,69.0,65.0,-100.00,ESE,113,5.0,-999.0,86,-99.99,,,-99.99,,2013-08-08 06:52:00,
2013-08-08 02:01:00,69.0,65.0,-100.00,ESE,113,5.0,-999.0,86,-99.99,,,-99.99,,2013-08-08 07:01:00,
2013-08-08 02:12:00,69.0,65.0,-100.00,ESE,113,5.0,-999.0,86,-99.99,,,-99.99,,2013-08-08 07:12:00,
2013-08-08 02:22:00,69.0,65.0,-100.00,ESE,113,5.0,-999.0,86,-99.99,,,-99.99,,2013-08-08 07:22:00,
2013-08-08 02:32:00,69.0,64.0,-100.00,ESE,113,5.0,-999.0,86,-99.99,,,-99.99,,2013-08-08 07:32:00,
2013-08-08 02:43:00,69.0,64.0,-100.00,ESE,113,5.0,-999.0,86,-99.99,,,-99.99,,2013-08-08 07:43:00,
2013-08-08 02:53:00,68.0,64.0,-100.00,ESE,113,4.0,-999.0,87,-99.99,,,-99.99,,2013-08-08 07:53:00,
2013-08-08 03:02:00,68.0,64.0,-100.00,ESE,113,3.0,-999.0,87,-99.99,,,-99.99,,2013-08-08 08:02:00,
2013-08-08 03:11:00,68.0,64.0,-100.00,ESE,113,3.0,-999.0,87,-99.99,,,-99.99,,2013-08-08 08:11:00,
2013-08-08 03:22:00,69.0,64.0,-100.00,East,90,4.0,-999.0,86,-99.99,,,-99.99,,2013-08-08 08:22:00,
2013-08-08 03:32:00,69.0,64.0,-100.00,ENE,68,3.0,-999.0,84,-99.99,,,-99.99,,2013-08-08 08:32:00,
2013-08-08 03:43:00,69.0,64.0,-100.00,ENE,68,3.0,-999.0,84,-99.99,,,-99.99,,2013-08-08 08:43:00,
2013-08-08 03:53:00,69.0,64.0,-100.00,East,90,4.0,-999.0,84,-99.99,,,-99.99,,2013-08-08 08:53:00,
2013-08-08 04:01:00,68.0,64.0,-100.00,ENE,68,4.0,-999.0,87,-99.99,,,-99.99,,2013-08-08 09:01:00,
2013-08-08 04:12:00,68.0,64.0,-100.00,ENE,68,4.0,-999.0,87,-99.99,,,-99.99,,2013-08-08 09:12:00,
2013-08-08 04:22:00,68.0,64.0,-100.00,ENE,68,4.0,-999.0,87,-99.99,,,-99.99,,2013-08-08 09:22:00,
2013-08-08 04:32:00,68.0,64.0,-100.00,ENE,68,4.0,-999.0,87,-99.99,,,-99.99,,2013-08-08 09:32:00,
2013-08-08 04:43:00,68.0,64.0,-100.00,ENE,68,4.0,-999.0,87,-99.99,,,-99.99,,2013-08-08 09:43:00,
2013-08-08 04:53:00,67.0,64.0,-100.00,ENE,68,5.0,-999.0,88,-99.99,,,-99.99,,2013-08-08 09:53:00,
2013-08-08 05:01:00,68.0,64.0,-100.00,East,90,4.0,-999.0,87,-99.99,,,-99.99,,2013-08-08 10:01:00,
2013-08-08 05:12:00,68.0,64.0,-100.00,East,90,4.0,-999.0,87,-99.99,,,-99.99,,2013-08-08 10:12:00,
2013-08-08 05:22:00,68.0,64.0,-100.00,East,90,5.0,-999.0,87,-99.99,,,-99.99,,2013-08-08 10:22:00,
2013-08-08 05:32:00,67.0,63.0,-100.00,East,90,5.0,-999.0,87,-99.99,,,-99.99,,2013-08-08 10:32:00,
2013-08-08 05:43:00,67.0,63.0,-100.00,East,90,5.0,-999.0,87,-99.99,,,-99.99,,2013-08-08 10:43:00,
2013-08-08 05:52:00,67.0,63.0,-100.00,ESE,113,7.0,-999.0,87,-99.99,,,-99.99,,2013-08-08 10:52:00,
2013-08-08 06:01:00,67.0,63.0,-100.00,ESE,113,7.0,-999.0,88,-99.99,,,-99.99,,2013-08-08 11:01:00,
2013-08-08 06:11:00,67.0,63.0,-100.00,ESE,113,7.0,-999.0,88,-99.99,,,-99.99,,2013-08-08 11:11:00,
2013-08-08 06:22:00,66.0,63.0,-100.00,ESE,113,5.0,-999.0,89,-99.99,,,-99.99,,2013-08-08 11:22:00,
2013-08-08 06:32:00,67.0,63.0,-100.00,ESE,113,5.0,-999.0,89,-99.99,,,-99.99,,2013-08-08 11:32:00,
2013-08-08 06:43:00,67.0,63.0,-100.00,ESE,113,5.0,-999.0,89,-99.99,,,-99.99,,2013-08-08 11:43:00,
2013-08-08 06:52:00,66.0,63.0,-100.00,ESE,113,5.0,-999.0,89,-99.99,,,-99.99,,2013-08-08 11:52:00,
2013-08-08 07:01:00,66.0,63.0,-100.00,SE,135,4.0,-999.0,89,-99.99,,,-99.99,,2013-08-08 12:01:00,
2013-08-08 07:11:00,66.0,63.0,-100.00,SE,135,4.0,-999.0,89,-99.99,,,-99.99,,2013-08-08 12:11:00,
2013-08-08 07:21:00,66.0,63.0,-100.00,SE,135,5.0,-999.0,90,-99.99,,,-99.99,,2013-08-08 12:21:00,
2013-08-08 07:32:00,67.0,63.0,-100.00,SSE,158,5.0,-999.0,89,-99.99,,,-99.99,,2013-08-08 12:32:00,
2013-08-08 07:43:00,67.0,63.0,-100.00,SSE,158,5.0,-999.0,89,-99.99,,,-99.99,,2013-08-08 12:43:00,
2013-08-08 07:53:00,67.0,63.0,-100.00,SE,135,6.0,-999.0,89,-99.99,,,-99.99,,2013-08-08 12:53:00,
2013-08-08 08:01:00,67.0,63.0,-100.00,SE,135,4.0,-999.0,89,-99.99,,,-99.99,,2013-08-08 13:01:00,
2013-08-08 08:11:00,67.0,63.0,-100.00,SE,135,4.0,-999.0,89,-99.99,,,-99.99,,2013-08-08 13:11:00,
2013-08-08 08:22:00,67.0,64.0,-100.00,SE,135,4.0,-999.0,89,-99.99,,,-99.99,,2013-08-08 13:22:00,
2013-08-08 08:32:00,67.0,63.0,-100.00,SSE,158,5.0,-999.0,89,-99.99,,,-99.99,,2013-08-08 13:32:00,
2013-08-08 08:43:00,67.0,63.0,-100.00,SSE,158,5.0,-999.0,89,-99.99,,,-99.99,,2013-08-08 13:43:00,
2013-08-08 08:53:00,67.0,64.0,-100.00,SSE,158,5.0,-999.0,89,-99.99,,,-99.99,,2013-08-08 13:53:00,
2013-08-08 09:02:00,68.0,64.0,-100.00,SE,135,4.0,-999.0,88,-99.99,,,-99.99,,2013-08-08 14:02:00,
2013-08-08 09:11:00,68.0,64.0,-100.00,SE,135,4.0,-999.0,88,-99.99,,,-99.99,,2013-08-08 14:11:00,
2013-08-08 09:22:00,69.0,64.0,-100.00,ESE,113,5.0,-999.0,86,-99.99,,,-99.99,,2013-08-08 14:22:00,
2013-08-08 09:32:00,69.0,64.0,-100.00,SE,135,5.0,-999.0,84,-99.99,,,-99.99,,2013-08-08 14:32:00,
2013-08-08 09:43:00,69.0,64.0,-100.00,SE,135,5.0,-999.0,84,-99.99,,,-99.99,,2013-08-08 14:43:00,
2013-08-08 09:53:00,69.0,64.0,-100.00,SE,135,3.0,-999.0,84,-99.99,,,-99.99,,2013-08-08 14:53:00,
2013-08-08 10:02:00,71.0,64.0,-100.00,ESE,113,4.0,-999.0,80,-99.99,,,-99.99,,2013-08-08 15:02:00,
2013-08-08 10:11:00,71.0,64.0,-100.00,ESE,113,4.0,-999.0,80,-99.99,,,-99.99,,2013-08-08 15:11:00,
2013-08-08 10:22:00,71.0,64.0,-100.00,SE,135,3.0,-999.0,80,-99.99,,,-99.99,,2013-08-08 15:22:00,
2013-08-08 10:32:00,72.0,65.0,-100.00,NE,45,1.0,-999.0,77,-99.99,,,-99.99,,2013-08-08 15:32:00,
2013-08-08 10:43:00,72.0,65.0,-100.00,NE,45,1.0,-999.0,77,-99.99,,,-99.99,,2013-08-08 15:43:00,
2013-08-08 10:53:00,72.0,64.0,-100.00,ESE,113,2.0,-999.0,75,-99.99,,,-99.99,,2013-08-08 15:53:00,
2013-08-08 11:01:00,72.0,64.0,-100.00,SE,135,3.0,-999.0,74,-99.99,,,-99.99,,2013-08-08 16:01:00,
2013-08-08 11:11:00,72.0,64.0,-100.00,SE,135,3.0,-999.0,74,-99.99,,,-99.99,,2013-08-08 16:11:00,
2013-08-08 11:22:00,73.0,64.0,-100.00,WSW,248,2.0,-999.0,75,-99.99,,,-99.99,,2013-08-08 16:22:00,
2013-08-08 11:32:00,75.0,65.0,-100.00,ESE,113,2.0,-999.0,71,-99.99,,,-99.99,,2013-08-08 16:32:00,
2013-08-08 11:42:00,75.0,65.0,-100.00,ESE,113,2.0,-999.0,71,-99.99,,,-99.99,,2013-08-08 16:42:00,
2013-08-08 11:52:00,74.0,64.0,-100.00,ESE,113,2.0,-999.0,71,-99.99,,,-99.99,,2013-08-08 16:52:00,
2013-08-08 12:01:00,76.0,64.0,-100.00,ESE,113,4.0,-999.0,65,-99.99,,,-99.99,,2013-08-08 17:01:00,
2013-08-08 12:11:00,76.0,64.0,-100.00,ESE,113,4.0,-999.0,65,-99.99,,,-99.99,,2013-08-08 17:11:00,
2013-08-08 12:21:00,77.0,65.0,-100.00,SE,135,2.0,-999.0,66,-99.99,,,-99.99,,2013-08-08 17:21:00,
2013-08-08 12:32:00,78.0,65.0,-100.00,ENE,68,3.0,-999.0,64,-99.99,,,-99.99,,2013-08-08 17:32:00,
2013-08-08 12:43:00,78.0,65.0,-100.00,ENE,68,3.0,-999.0,64,-99.99,,,-99.99,,2013-08-08 17:43:00,
2013-08-08 12:52:00,77.0,65.0,-100.00,ESE,113,2.0,-999.0,67,-99.99,,,-99.99,,2013-08-08 17:52:00,
2013-08-08 13:01:00,78.0,65.0,-100.00,ENE,68,2.0,-999.0,64,-99.99,,,-99.99,,2013-08-08 18:01:00,
2013-08-08 13:11:00,78.0,65.0,-100.00,ENE,68,2.0,-999.0,64,-99.99,,,-99.99,,2013-08-08 18:11:00,
2013-08-08 13:22:00,78.0,65.0,-100.00,SE,135,4.0,-999.0,65,-99.99,,,-99.99,,2013-08-08 18:22:00,
2013-08-08 13:32:00,78.0,66.0,-100.00,SE,135,2.0,-999.0,65,-99.99,,,-99.99,,2013-08-08 18:32:00,
2013-08-08 13:43:00,78.0,66.0,-100.00,SE,135,2.0,-999.0,65,-99.99,,,-99.99,,2013-08-08 18:43:00,
2013-08-08 13:53:00,78.0,65.0,-100.00,SSE,158,5.0,-999.0,65,-99.99,,,-99.99,,2013-08-08 18:53:00,
2013-08-08 14:01:00,79.0,66.0,-100.00,East,90,3.0,-999.0,64,-99.99,,,-99.99,,2013-08-08 19:01:00,
2013-08-08 14:11:00,79.0,66.0,-100.00,East,90,3.0,-999.0,64,-99.99,,,-99.99,,2013-08-08 19:11:00,
2013-08-08 14:22:00,78.0,65.0,-100.00,SE,135,2.0,-999.0,64,-99.99,,,-99.99,,2013-08-08 19:22:00,
2013-08-08 14:32:00,78.0,65.0,-100.00,SSE,158,4.0,-999.0,64,-99.99,,,-99.99,,2013-08-08 19:32:00,
2013-08-08 14:43:00,78.0,65.0,-100.00,SSE,158,4.0,-999.0,64,-99.99,,,-99.99,,2013-08-08 19:43:00,
2013-08-08 14:57:00,79.0,66.0,-100.00,East,90,4.0,-999.0,64,-99.99,,,-99.99,,2013-08-08 19:57:00,
2013-08-08 15:11:00,78.0,65.0,-100.00,ENE,68,1.0,-999.0,64,-99.99,,,-99.99,,2013-08-08 20:11:00,
2013-08-08 15:22:00,78.0,65.0,-100.00,East,90,3.0,-999.0,64,-99.99,,,-99.99,,2013-08-08 20:22:00,
2013-08-08 15:32:00,79.0,66.0,-100.00,East,90,4.0,-999.0,64,-99.99,,,-99.99,,2013-08-08 20:32:00,
2013-08-08 15:42:00,79.0,66.0,-100.00,East,90,4.0,-999.0,64,-99.99,,,-99.99,,2013-08-08 20:42:00,
2013-08-08 15:52:00,79.0,66.0,-100.00,ESE,113,4.0,-999.0,65,-99.99,,,-99.99,,2013-08-08 20:52:00,
2013-08-08 16:01:00,79.0,66.0,-100.00,East,90,2.0,-999.0,65,-99.99,,,-99.99,,2013-08-08 21:01:00,
2013-08-08 16:12:00,79.0,66.0,-100.00,East,90,2.0,-999.0,65,-99.99,,,-99.99,,2013-08-08 21:12:00,
2013-08-08 16:23:00,79.0,66.0,-100.00,ENE,68,2.0,-999.0,65,-99.99,,,-99.99,,2013-08-08 21:23:00,
2013-08-08 16:33:00,79.0,66.0,-100.00,ENE,68,3.0,-999.0,64,-99.99,,,-99.99,,2013-08-08 21:33:00,
2013-08-08 16:43:00,79.0,66.0,-100.00,ENE,68,3.0,-999.0,64,-99.99,,,-99.99,,2013-08-08 21:43:00,
2013-08-08 16:56:00,78.0,65.0,-100.00,ENE,68,3.0,-999.0,64,-99.99,,,-99.99,,2013-08-08 21:56:00,
2013-08-08 17:04:00,78.0,66.0,-100.00,East,90,3.0,-999.0,65,-99.99,,,-99.99,,2013-08-08 22:04:00,
2013-08-08 17:15:00,78.0,66.0,-100.00,East,90,3.0,-999.0,65,-99.99,,,-99.99,,2013-08-08 22:15:00,
2013-08-08 17:23:00,77.0,67.0,-100.00,ESE,113,2.0,-999.0,69,-99.99,,,-99.99,,2013-08-08 22:23:00,
2013-08-08 17:33:00,77.0,66.0,-100.00,ESE,113,4.0,-999.0,68,-99.99,,,-99.99,,2013-08-08 22:33:00,
2013-08-08 17:47:00,77.0,66.0,-100.00,ESE,113,4.0,-999.0,68,-99.99,,,-99.99,,2013-08-08 22:47:00,
2013-08-08 17:57:00,76.0,67.0,-100.00,East,90,1.0,-999.0,72,-99.99,,,-99.99,,2013-08-08 22:57:00,
2013-08-08 18:04:00,76.0,67.0,-100.00,ENE,68,2.0,-999.0,75,-99.99,,,-99.99,,2013-08-08 23:04:00,
2013-08-08 18:14:00,76.0,67.0,-100.00,ENE,68,2.0,-999.0,75,-99.99,,,-99.99,,2013-08-08 23:14:00,
2013-08-08 18:23:00,75.0,69.0,-100.00,ENE,68,3.0,-999.0,79,-99.99,,,-99.99,,2013-08-08 23:23:00,
2013-08-08 18:34:00,76.0,68.0,-100.00,East,90,3.0,-999.0,77,-99.99,,,-99.99,,2013-08-08 23:34:00,
2013-08-08 18:44:00,76.0,68.0,-100.00,East,90,3.0,-999.0,77,-99.99,,,-99.99,,2013-08-08 23:44:00,
2013-08-08 18:57:00,75.0,68.0,-100.00,East,90,4.0,-999.0,78,-99.99,,,-99.99,,2013-08-08 23:57:00,
2013-08-08 19:03:00,76.0,67.0,-100.00,ESE,113,4.0,-999.0,75,-99.99,,,-99.99,,2013-08-09 00:03:00,
2013-08-08 19:14:00,76.0,67.0,-100.00,ESE,113,4.0,-999.0,75,-99.99,,,-99.99,,2013-08-09 00:14:00,
2013-08-08 19:24:00,76.0,67.0,-100.00,ENE,68,3.0,-999.0,75,-99.99,,,-99.99,,2013-08-09 00:24:00,
2013-08-08 19:34:00,76.0,68.0,-100.00,East,90,3.0,-999.0,76,-99.99,,,-99.99,,2013-08-09 00:34:00,
2013-08-08 19:45:00,76.0,68.0,-100.00,East,90,3.0,-999.0,76,-99.99,,,-99.99,,2013-08-09 00:45:00,
2013-08-08 19:55:00,75.0,68.0,-100.00,SE,135,2.0,-999.0,78,-99.99,,,-99.99,,2013-08-09 00:55:00,
2013-08-08 20:02:00,75.0,69.0,-100.00,ESE,113,2.0,-999.0,80,-99.99,,,-99.99,,2013-08-09 01:02:00,
2013-08-08 20:13:00,75.0,69.0,-100.00,ESE,113,2.0,-999.0,80,-99.99,,,-99.99,,2013-08-09 01:13:00,
2013-08-08 20:23:00,74.0,69.0,-100.00,ESE,113,2.0,-999.0,82,-99.99,,,-99.99,,2013-08-09 01:23:00,
2013-08-08 20:33:00,74.0,68.0,-100.00,SE,135,3.0,-999.0,82,-99.99,,,-99.99,,2013-08-09 01:33:00,
2013-08-08 20:45:00,74.0,68.0,-100.00,SE,135,3.0,-999.0,82,-99.99,,,-99.99,,2013-08-09 01:45:00,
2013-08-08 20:59:00,74.0,68.0,-100.00,SE,135,2.0,-999.0,82,-99.99,,,-99.99,,2013-08-09 01:59:00,
2013-08-08 21:12:00,73.0,68.0,-100.00,ESE,113,2.0,-999.0,84,-99.99,,,-99.99,,2013-08-09 02:12:00,
2013-08-08 21:23:00,73.0,68.0,-100.00,ESE,113,2.0,-999.0,85,-99.99,,,-99.99,,2013-08-09 02:23:00,
2013-08-08 21:34:00,72.0,68.0,-100.00,SE,135,3.0,-999.0,85,-99.99,,,-99.99,,2013-08-09 02:34:00,
2013-08-08 21:44:00,72.0,68.0,-100.00,SE,135,3.0,-999.0,85,-99.99,,,-99.99,,2013-08-09 02:44:00,
2013-08-08 21:56:00,72.0,68.0,-100.00,SSE,158,5.0,-999.0,86,-99.99,,,-99.99,,2013-08-09 02:56:00,
2013-08-08 22:04:00,72.0,68.0,-100.00,South,180,4.0,-999.0,86,-99.99,,,-99.99,,2013-08-09 03:04:00,
2013-08-08 22:14:00,72.0,68.0,-100.00,South,180,4.0,-999.0,86,-99.99,,,-99.99,,2013-08-09 03:14:00,
2013-08-08 22:23:00,72.0,68.0,-100.00,South,180,4.0,-999.0,86,-99.99,,,-99.99,,2013-08-09 03:23:00,
2013-08-08 22:34:00,72.0,68.0,-100.00,South,180,6.0,-999.0,87,-99.99,,,-99.99,,2013-08-09 03:34:00,
2013-08-08 22:44:00,72.0,68.0,-100.00,South,180,6.0,-999.0,87,-99.99,,,-99.99,,2013-08-09 03:44:00,
2013-08-08 22:56:00,71.0,67.0,-100.00,SSW,203,4.0,-999.0,87,-99.99,,,-99.99,,2013-08-09 03:56:00,
2013-08-08 23:01:00,71.0,67.0,-100.00,SSW,203,4.0,-999.0,87,-99.99,,,-99.99,,2013-08-09 04:01:00,
2013-08-08 23:12:00,71.0,67.0,-100.00,SSW,203,4.0,-999.0,87,-99.99,,,-99.99,,2013-08-09 04:12:00,
2013-08-08 23:22:00,70.0,66.0,-100.00,WSW,248,0.0,-999.0,89,-99.99,,,-99.99,,2013-08-09 04:22:00,
2013-08-08 23:33:00,70.0,66.0,-100.00,SSW,203,2.0,-999.0,88,-99.99,,,-99.99,,2013-08-09 04:33:00,
2013-08-08 23:43:00,70.0,66.0,-100.00,SSW,203,2.0,-999.0,88,-99.99,,,-99.99,,2013-08-09 04:43:00,
2013-08-08 23:53:00,70.0,67.0,-100.00,West,270,1.0,-999.0,90,-99.99,,,-99.99,,2013-08-09 04:53:00,